Find Starlink 36337

NORAD ID: 68716 Int'l Des: 2026-081 Owner: SPXS Country: US Constellation: starlink operational
LEOCIRCULAR

当前视图

正在加载3D地球...

关于 Starlink 36337

正在加载描述...

即将过境

Passes for default location (London). Set your location on the main map for personalized predictions.

高度历史

Loading altitude history...

两行轨道根数

1 68716U 26081T 26150.61070594 .00077520 00000-0 13863-2 0 9995
2 68716 53.1586 13.7111 0001184 79.5081 280.6061 15.49344411 7282
Epoch: May 30, 2026 • Age: 14 hours

当前状态

高度 426.9 km
速度 7.66 km/s
星下点 -27.50°S, 32.86°E
发射日期 Apr 14, 2026
运行时间 0.1 years
类型 internet

技术详情

分类 Payload
质量 575.00 kg
干质量 530.00 kg
总质量 575.00 kg
长度 0.30 m
直径 4.10 m
跨度 29.00 m
形状 Box + pan
制造商 SPXS
平台类型 Starlink V2MO
阶段状态 In Orbit
所有者/国家 SPXS/US

Most Searched